Weather History for Clarinda, IA

Change the Weather History Date:

Monday, February 10, 2014

  Actual Average Record
Temperature  
Mean Temperature 0 °F -  
Max Temperature 10 °F 38 °F 73 °F (1999)
Min Temperature -11 °F 19 °F -11 °F (2014)
Degree Days  
Heating Degree Days 66    
Moisture  
Dew Point -7 °F    
Average Humidity 75    
Maximum Humidity 92    
Minimum Humidity 57    
Precipitation  
Precipitation 0.00 in - - ()
Sea Level Pressure  
Sea Level Pressure 30.50 in    
Wind  
Wind Speed 2 mph (NNE)    
Max Wind Speed 8 mph    
Max Gust Speed -    
Visibility 10 miles    
Events      
Averages and records for this station are not official NWS values.
T = Trace of Precipitation, MM = Missing Value Source: NWS Daily Summary

Daily Weather History Graph

Daily Weather History Graph

Search for Another Location

Airport:

Trip Planner

Search our weather history database for the weather conditions in past years. The results will help you decide how hot, cold, wet, or windy it might be!

Date:

Astronomy

Feb. 10, 2014 Rise Set
Actual Time 7:20 AM CST 5:48 PM CST
Civil Twilight 6:51 AM CST 6:17 PM CST
Nautical Twilight 6:19 AM CST 6:49 PM CST
Astronomical Twilight 5:47 AM CST 7:21 PM CST
Moon 2:18 PM CST (2/10) 4:14 AM CST (2/10)
Length of Visible Light 11h 25m
Length of Day
10h 28m
Waxing Gibbous, 85% of the Moon is Illuminated
Feb 10
Waxing Gibbous
Feb 14
Full
Feb 22
Last Quarter
Mar 1
New
Mar 8
First Quarter

Hourly Weather History & Observations

Time (CST) Temp. Windchill Dew Point Humidity Pressure Visibility Wind Dir Wind Speed Gust Speed Precip Events Conditions
12:15 AM 1.4 °F - -5.8 °F 72% 30.46 in 10.0 mi Calm Calm - N/A   Partly Cloudy
12:35 AM -0.4 °F - -5.8 °F 78% 30.46 in 10.0 mi Calm Calm - N/A   Partly Cloudy
12:55 AM -0.4 °F - -4.0 °F 85% 30.46 in 10.0 mi Calm Calm - N/A   Clear
1:15 AM -2.2 °F - -5.8 °F 85% 30.47 in 10.0 mi Calm Calm - N/A   Partly Cloudy
1:35 AM -4.0 °F - -7.6 °F 85% 30.47 in 10.0 mi Calm Calm - N/A   Partly Cloudy
1:55 AM -4.0 °F - -7.6 °F 85% 30.48 in 10.0 mi Calm Calm - N/A   Clear
2:15 AM -5.8 °F - -9.4 °F 84% 30.49 in 10.0 mi Calm Calm - N/A   Clear
2:35 AM -7.6 °F - -11.2 °F 84% 30.51 in 10.0 mi Calm Calm - N/A   Clear
2:55 AM -7.6 °F - -11.2 °F 84% 30.52 in 10.0 mi Calm Calm - N/A   Clear
3:15 AM -5.8 °F - -9.4 °F 84% 30.51 in 10.0 mi Calm Calm - N/A   Clear
3:35 AM -4.0 °F -14.6 °F -9.4 °F 78% 30.50 in 10.0 mi NE 4.6 mph - N/A   Clear
3:55 AM -4.0 °F -16.3 °F -7.6 °F 85% 30.50 in 10.0 mi NE 5.8 mph - N/A   Clear
4:15 AM -4.0 °F - -7.6 °F 85% 30.50 in 10.0 mi Calm Calm - N/A   Clear
4:35 AM -4.0 °F -12.4 °F -7.6 °F 85% 30.49 in 10.0 mi NNW 3.5 mph - N/A   Clear
4:55 AM -7.6 °F - -11.2 °F 84% 30.50 in 10.0 mi Calm Calm - N/A   Clear
5:15 AM -7.6 °F - -9.4 °F 92% 30.50 in 10.0 mi Calm Calm - N/A   Clear
5:35 AM -7.6 °F - -11.2 °F 84% 30.50 in 10.0 mi Calm Calm - N/A   Clear
5:55 AM -9.4 °F - -13.0 °F 84% 30.50 in 10.0 mi Calm Calm - N/A   Clear
6:15 AM -9.4 °F - -13.0 °F 84% 30.50 in 10.0 mi Calm Calm - N/A   Clear
6:35 AM -11.2 °F - -14.8 °F 84% 30.50 in 10.0 mi Calm Calm - N/A   Clear
6:55 AM -11.2 °F - -14.8 °F 84% 30.51 in 10.0 mi Calm Calm - N/A   Clear
7:15 AM -11.2 °F - -16.6 °F 77% 30.52 in 10.0 mi Calm Calm - N/A   Clear
7:35 AM -11.2 °F - -14.8 °F 84% 30.52 in 10.0 mi Calm Calm - N/A   Clear
7:55 AM -9.4 °F - -14.8 °F 77% 30.53 in 2.5 mi Calm Calm - N/A   Clear
8:15 AM -7.6 °F - -11.2 °F 84% 30.54 in 9.0 mi Calm Calm - N/A   Clear
8:35 AM -5.8 °F -16.7 °F -9.4 °F 84% 30.54 in 10.0 mi NNE 4.6 mph - N/A   Clear
8:55 AM -4.0 °F -12.4 °F -9.4 °F 78% 30.53 in 10.0 mi NNE 3.5 mph - N/A   Clear
9:15 AM -4.0 °F -14.6 °F -7.6 °F 85% 30.54 in 10.0 mi NNE 4.6 mph - N/A   Clear
9:35 AM -2.2 °F - -7.6 °F 78% 30.54 in 10.0 mi Calm Calm - N/A   Clear
9:55 AM -0.4 °F -10.4 °F -7.6 °F 72% 30.54 in 10.0 mi NE 4.6 mph - N/A   Clear
10:15 AM 1.4 °F -8.3 °F -5.8 °F 72% 30.55 in 10.0 mi NE 4.6 mph - N/A   Clear
10:35 AM 3.2 °F -7.8 °F -4.0 °F 72% 30.55 in 10.0 mi NNE 5.8 mph - N/A   Clear
10:55 AM 3.2 °F -7.8 °F -4.0 °F 72% 30.54 in 10.0 mi NNE 5.8 mph - N/A   Clear
11:15 AM 5.0 °F -4.1 °F -4.0 °F 66% 30.54 in 10.0 mi NNE 4.6 mph - N/A   Clear
11:35 AM 5.0 °F - -4.0 °F 66% 30.54 in 10.0 mi Calm Calm - N/A   Clear
11:55 AM 5.0 °F - -2.2 °F 72% 30.53 in 10.0 mi Calm Calm - N/A   Clear
12:15 PM 6.8 °F -2.0 °F -2.2 °F 67% 30.52 in 10.0 mi NNW 4.6 mph - N/A   Clear
12:35 PM 6.8 °F -2.0 °F -2.2 °F 67% 30.50 in 10.0 mi NE 4.6 mph - N/A   Clear
12:55 PM 8.6 °F 2.0 °F -2.2 °F 62% 30.48 in 10.0 mi NE 3.5 mph - N/A   Clear
1:15 PM 8.6 °F -3.7 °F -2.2 °F 62% 30.47 in 10.0 mi NNE 8.1 mph - N/A   Clear
1:35 PM 8.6 °F 0.1 °F -2.2 °F 62% 30.46 in 10.0 mi NE 4.6 mph - N/A   Clear
1:55 PM 8.6 °F -1.3 °F -2.2 °F 62% 30.46 in 10.0 mi North 5.8 mph - N/A   Clear
2:15 PM 8.6 °F 0.1 °F -2.2 °F 62% 30.46 in 10.0 mi NNE 4.6 mph - N/A   Clear
2:35 PM 8.6 °F -1.3 °F -2.2 °F 62% 30.46 in 10.0 mi Variable 5.8 mph - N/A   Clear
2:55 PM 10.4 °F 2.2 °F -2.2 °F 57% 30.46 in 10.0 mi North 4.6 mph - N/A   Clear
3:15 PM 10.4 °F -0.4 °F -2.2 °F 57% 30.46 in 10.0 mi NNE 6.9 mph - N/A   Clear
3:35 PM 10.4 °F 2.2 °F -2.2 °F 57% 30.48 in 10.0 mi NNE 4.6 mph - N/A   Clear
3:55 PM 10.4 °F 2.2 °F -2.2 °F 57% 30.49 in 10.0 mi North 4.6 mph - N/A   Clear
4:15 PM 10.4 °F 0.8 °F -2.2 °F 57% 30.48 in 10.0 mi NNE 5.8 mph - N/A   Clear
4:35 PM 10.4 °F -0.4 °F -2.2 °F 57% 30.47 in 10.0 mi NNE 6.9 mph - N/A   Clear
4:55 PM 8.6 °F -1.3 °F -2.2 °F 62% 30.48 in 10.0 mi North 5.8 mph - N/A   Clear
5:15 PM 8.6 °F -1.3 °F -2.2 °F 62% 30.47 in 10.0 mi NNE 5.8 mph - N/A   Clear
5:35 PM 6.8 °F -3.5 °F -2.2 °F 67% 30.47 in 10.0 mi NNE 5.8 mph - N/A   Clear
5:55 PM 6.8 °F -2.0 °F -2.2 °F 67% 30.48 in 10.0 mi NNE 4.6 mph - N/A   Clear
6:15 PM 5.0 °F -4.1 °F -4.0 °F 66% 30.48 in 10.0 mi NNE 4.6 mph - N/A   Clear
6:35 PM 6.8 °F -3.5 °F -4.0 °F 61% 30.50 in 10.0 mi North 5.8 mph - N/A   Clear
6:55 PM 3.2 °F -6.2 °F -4.0 °F 72% 30.51 in 10.0 mi NNE 4.6 mph - N/A   Mostly Cloudy
7:15 PM 3.2 °F -6.2 °F -4.0 °F 72% 30.51 in 10.0 mi North 4.6 mph - N/A   Overcast
7:35 PM 3.2 °F -6.2 °F -4.0 °F 72% 30.50 in 10.0 mi NE 4.6 mph - N/A   Overcast
7:55 PM 1.4 °F -6.2 °F -5.8 °F 72% 30.51 in 10.0 mi NNE 3.5 mph - N/A   Mostly Cloudy
8:15 PM -0.4 °F - -5.8 °F 78% 30.50 in 10.0 mi Calm Calm - N/A   Partly Cloudy
8:35 PM -0.4 °F - -5.8 °F 78% 30.51 in 10.0 mi Calm Calm - N/A   Clear
8:55 PM -2.2 °F - -7.6 °F 78% 30.50 in 10.0 mi Calm Calm - N/A   Clear
9:15 PM -4.0 °F - -7.6 °F 85% 30.50 in 10.0 mi Calm Calm - N/A   Clear
9:35 PM -5.8 °F - -11.2 °F 77% 30.51 in 10.0 mi Calm Calm - N/A   Clear
9:55 PM -4.0 °F - -9.4 °F 78% 30.51 in 10.0 mi Calm Calm - N/A   Clear
10:15 PM -7.6 °F - -13.0 °F 77% 30.51 in 10.0 mi Calm Calm - N/A   Clear
10:35 PM -7.6 °F - -11.2 °F 84% 30.52 in 10.0 mi Calm Calm - N/A   Partly Cloudy
10:55 PM -5.8 °F - -11.2 °F 77% 30.51 in 10.0 mi Calm Calm - N/A   Partly Cloudy
11:15 PM -5.8 °F - -9.4 °F 84% 30.51 in 10.0 mi Calm Calm - N/A   Clear
11:35 PM -5.8 °F - -11.2 °F 77% 30.51 in 10.0 mi Calm Calm - N/A   Partly Cloudy
11:55 PM -7.6 °F - -11.2 °F 84% 30.51 in 10.0 mi Calm Calm - N/A   Partly Cloudy